Location: Lanoux
(43.1180°N, 1.4255°E)
Time: 16:02:39
(UTC+00:00)

SL-16 R/B - Pass Details

Date: 16 March 2026
Orbit: 985 x 1006 km, 99.8° (Epoch: 15 April)

Event Time Altitude Azimuth Distance (km) Brightness Sun altitude
Rises 18:25:50 0° 3° (N) 3,739 5.6 -5.2°
Reaches altitude 10° 18:28:58 10° 347° (NNW) 2,787 5.1 -5.8°
Maximum altitude 18:33:19 20° 303° (WNW) 2,128 5.2 -6.6°
Drops below altitude 10° 18:37:40 10° 258° (WSW) 2,780 6.4 -7.4°
Sets 18:40:48 0° 243° (WSW) 3,726 6.6 -7.9°
